Miscellaneous Local Product
Issued by NWS North Platte, NE

Home | Current Version | Previous Version | Text Only | Print | Product List | Glossary On
Versions: 1 2 3 4 5 6 7 8 9 10 11 12 13 14 15 16 17 18 19 20 21 22 23 24 25 26 27 28 29 30 31 32 33 34 35 36 37 38 39 40 41 42 43 44 45 46 47 48 49 50
480
AXUS43 KLBF 261810
MISLBF


WESTERN AND NORTH CENTRAL NEBRASKA HOURLY WEATHER ROUNDUP
NATIONAL WEATHER SERVICE NORTH PLATTE NE
100 PM CDT TUE JUL 26 2016

NOTE: "FAIR" INDICATES FEW OR NO CLOUDS BELOW 12,000 FEET WITH NO
SIGNIFICANT WEATHER AND/OR OBSTRUCTIONS TO VISIBILITY.

NOTE: STATIONS NOT REPORTING VARIABLES SUCH AS SKY/WEATHER OR
PRESSURE ARE PROVIDED BY RAWS AND APRS NETWORKS AND ARE NOT UNDER
NATIONAL WEATHER SERVICE QUALITY CONTROL.

...OBSERVATIONS IN AND NEAR THE EASTERN PANHANDLE OF NEBRASKA...

CITY           SKY/WX    TMP DP  RH WIND       PRES   REMARKS
PINE RIDGE     SUNNY     85  63  47 SE14G22   30.03F
CHADRON        SUNNY     86  60  41 VRB5      30.02F
ALLIANCE       SUNNY     85  63  47 SE10      30.05F
SIDNEY         SUNNY     89  57  33 S10G20    30.10F
CRESCENT LAKE    N/A     84  66  54 S6G16       N/A
$$

...OBSERVATIONS IN NORTHERN NEBRASKA AND FAR SOUTHERN SOUTH DAKOTA...

CITY           SKY/WX    TMP DP  RH WIND       PRES   REMARKS
WINNER         FAIR      93  64  38 SW14      30.02F HX  94
VALENTINE      CLOUDY    88  62  41 W9        30.05F
THEDFORD       SUNNY     86  64  46 S12       30.09R
AINSWORTH      MOSUNNY   86  66  52 SW8       30.08S
O`NEILL        SUNNY     86  57  36 S13       30.07S
ORD            SUNNY     82  63  52 SE10      30.05F
BROKEN BOW     SUNNY     82  66  58 S14G23    30.07F
VALENTINE NWR    N/A     85  65  51 SW7G22      N/A
BUTTE            N/A     86  63  45 SE7G16      N/A
HALSEY           N/A     84  63  49 S8G18       N/A
EWING            N/A     85  69  58 S6          N/A
$$

...OBSERVATIONS IN SOUTHWEST NEBRASKA AND FAR NORTHEAST COLORADO...

CITY           SKY/WX    TMP DP  RH WIND       PRES   REMARKS
WRAY           FAIR      88  61  40 S12G18    30.07F
HOLYOKE        FAIR      86  64  48 W9        30.07F
IMPERIAL       SUNNY     86  64  47 S16G24    30.06F
OGALLALA       SUNNY     87  65  47 S12       30.05F
NORTH PLATTE   SUNNY     84  67  56 S9        30.06S
MCCOOK         SUNNY     87  65  47 S15       30.05F
LEXINGTON      SUNNY     82  66  58 SE13G18   30.06F
STAPLETON        N/A     84  69  60 NE3         N/A
GOTHENBURG       N/A     78  62  58 SE8         N/A
CALLAWAY         N/A     79  70  74 S9          N/A
$$

...OBSERVATIONS IN CENTRAL LINCOLN COUNTY AREA...

CITY           SKY/WX    TMP DP  RH WIND       PRES   REMARKS
N.P. AIRPORT   SUNNY     84  67  56 S9        30.06S
N.P. DOWNTOWN    N/A     84  67  56 S6G13       N/A
N.P. HILLCREST   N/A     82  68  62 S12G20      N/A
$$

...SOME OBSERVATIONS FROM AROUND THE REGION...

CITY           SKY/WX    TMP DP  RH WIND       PRES   REMARKS
DENVER         CLOUDY    91  39  16 E3        30.16S
LARAMIE        CLOUDY    85  33  15 VRB6      30.29S
CHEYENNE       CLOUDY    87  37  17 NE7       30.20S
SCOTTSBLUFF    SUNNY     87  54  32 N6        30.05F
RAPID CITY     SUNNY     81  56  42 SE8       30.05S
BISMARCK       LGT RAIN  73  68  84 N13       30.01F
PIERRE         CLOUDY    85  63  47 N12       29.96F
SIOUX FALLS    MOSUNNY   84  63  49 S12       30.05F
OMAHA          PTSUNNY   85  62  46 E5        30.07F
GRAND ISLAND   SUNNY     83  64  52 SE13      30.08F
KANSAS CITY    PTSUNNY   84  66  54 E9G18     30.06F
WICHITA        PTSUNNY   86  71  60 E12       30.04F HX  91
OKLAHOMA CITY  CLOUDY    84  72  67 CALM      30.03F
DALLAS         MOSUNNY   94  70  45 NE7       29.96F HX 100
AMARILLO       SUNNY     91  57  31 MISG      30.11F
DODGE CITY     SUNNY     82  68  62 SE9       30.09F
HAYS           SUNNY     81  64  57 S5        30.08S
GOODLAND       SUNNY     80  67  64 S17       30.10F
$$




USA.gov is the U.S. government's official web portal to all federal, state and local government web resources and services.